Volver al catálogo

METEOR 2-20

ActivoMeteoPO
NORAD 20826·PAYLOAD·🇷🇺 Russia

Lanzado Sep 28, 1990 desde Plesetsk Cosmodrome

Loading…

Próximos Pases (próximas 24 horas)

TLE

ActualizadoSource: Space-Track

Época: Sep 14, 2026, 15:01 UTC

1 20826U 90086A   26257.62587258  .00000001  00000-0 -12422-4 0  9993
2 20826  82.5237 126.3337 0014118 131.0195 229.2188 13.84466355816694

Sigue METEOR 2-20 en tiempo real con AllMySat

Download on the App Store